Погода в Куинстауне

Новая Зеландия     45°01′42″S   168°39′47″E
темп.,
°C
ветер,
м/с
пор.,
м/с
влажн.,
%
обл.,
%
осадки,
мм/ч
давл.,
гПа
погр.,
м
19 апреля, пн
пн1900:00+7зсз3391100 0.2 101168
03:00+5з3394100 0.1 101350
06:00+5зсз2294100 0.2 101343
09:00+7сз2388100 0.0 1014190
12:00+7з2384100 0.1 1014225
15:00+9зсз338285 0.0 1014283
18:00+7зсз329319 0.1 101542
21:00+5зсз229478 0.0 101615
20 апреля, вт
вт2000:00+3сз21941 0.0 101713
03:00+2зсз22931 0.0 101612
06:00+2зсз11931 0.0 101511
09:00+5зсз11835 0.0 101592
12:00+11зсз236317 0.0 1011647
15:00+12з2355100 0.0 10081002
18:00+8з2273100 0.0 100815
21:00+7з2287100 0.0 100820
21 апреля, ср
ср2100:00+5з229493 0.0 100813
03:00+3з119678 0.0 100711
06:00+3з119796 0.0 100812
09:00+6ссв008925 0.0 100885
12:00+11юз116299 0.0 1006621
15:00+12юв115426 0.0 10051234
18:00+8юв227999 0.1 100868
21:00+6в239084 0.1 1011197
22 апреля, чт
чт2200:00+6в238768 0.1 1011145
03:00+4всв119339 0.0 101123
06:00+3ссз019660 0.0 101213
09:00+7сз118354 0.0 101195
12:00+12сз236249 0.0 1009877
15:00+13з3359100 0.1 1008768
18:00+9з2278100 0.3 100817
21:00+9ссз2282100 0.0 100850
23 апреля, пт
пт2300:00+8с2386100 0.1 1008192
03:00+7ссв2296100 1.3 100785
06:00+7всв1294100 2.4 100772
09:00+7всв1192100 0.6 100782
12:00+7с1295100 3.1 1007138
15:00+7ссз118980 1.2 1006147
18:00+8зсз118695 1.4 100511
21:00+5зсз229198 0.1 100716